Terminal Aerodrome Forecast
Issued by NWS Twin Cities, MN

Home | Current Version | Previous Version | Graphics & Text | Print | Product List | Glossary On
Versions: 1 2 3 4 5 6 7 8 9 10 11 12 13 14 15 16 17 18 19 20 21 22
000
FTUS43 KMPX 311740
TAFEAU
TAF
KEAU 311740Z 3118/0118 18009KT P6SM BKN012
     FM311900 19011G18KT P6SM FEW025
     FM010000 18007KT P6SM SCT250
     FM011000 18003KT 2SM BR OVC005
     FM011530 20007KT P6SM SCT250=

USA.gov is the U.S. government's official web portal to all federal, state and local government web resources and services.